Regional Weather Roundup
Issued by NWS

Home | Current Version | Previous Version | Text Only | Print | Product List | Glossary On
Versions: 1 2 3 4 5 6 7 8 9 10 11 12 13 14 15 16 17 18 19 20 21 22 23 24 25 26 27 28 29 30 31 32 33 34 35 36 37 38 39 40 41 42 43 44 45 46 47 48 49 50
000
ASUS45 KSLC 240810
RWRUT

UTAH REGIONAL WEATHER ROUNDUP
NATIONAL WEATHER SERVICE SALT LAKE CITY UT
200 AM MDT FRI MAR 24 2017

UTZ001>011-023>025-240900-

NORTHERN UTAH

CITY           SKY/WX    TMP DP  RH WIND       PRES   REMARKS
BRIGHAM CITY     N/A     38  35  87 CALM      30.15R
HILL AFB       CLEAR     38  31  75 CALM      30.14R
LOGAN          CLEAR     37  34  89 S6        30.14R WCI  32
OGDEN          CLEAR     34  32  92 S6        30.14R WCI  29
SALT LAKE CITY PTCLDY    35  35 100 S3        30.14R
WENDOVER       CLEAR     46  22  38 NW6       30.14R
HEBER CITY     CLOUDY    37  34  87 CALM      30.11R

$$

UTZ011>015-024>027-240900-

CENTRAL/NORTHEAST UTAH

CITY           SKY/WX    TMP DP  RH WIND       PRES   REMARKS
PROVO AIRPORT  PTCLDY    41  34  76 CALM      30.16R
MOAB/CANYONLAN CLOUDY    46  32  58 NW12      29.95R
DELTA          CLEAR     34  32  93 SE8       30.17R WCI  27
PRICE          PTCLDY    41  28  60 NW20G33   29.98R
ROOSEVELT      CLOUDY    39  34  81 CALM      30.03R
VERNAL         CLOUDY    44  32  62 NE14      30.01R

$$

UTZ013>016-019>022-027-240900-

SOUTHERN UTAH

CITY           SKY/WX    TMP DP  RH WIND       PRES   REMARKS
BRYCE CANYON   CLEAR     30  24  78 NW16      30.13R WCI  19
CEDAR CITY     CLEAR     29  25  85 CALM      30.17R
MILFORD        CLEAR    N/A N/A N/A SW8       30.18R
ST GEORGE      PTSUNNY   46  39  76 CALM      30.15R
HANKSVILLE     CLEAR     45  30  57 NW12G20   30.03R
BLANDING       PTCLDY    42  28  58 NW24G32   30.00R

$$

REGIONAL REPORTS     COLORADO/ARIZONA

CITY           SKY/WX    TMP DP  RH WIND       PRES   REMARKS
CRAIG, CO      CLOUDY    37  30  75 SW5       29.94R WCI  33
GRAND JUNCTION CLOUDY    43  38  82 N12       29.91R
RIFLE, CO      CLOUDY    46  35  65 W14       29.90R
MONTROSE, CO   CLOUDY    42  36  79 NW22G33   29.88R
CORTEZ, CO     CLOUDY    38  35  89 NW10      29.91R WCI  31
COLORADO CITY    N/A     34  32  93 E3        30.18R
PAGE, AZ       CLEAR     49  32  52 W13G20    30.04R
GRAND CANYON   CLEAR     32  30  92 CALM      30.15R
KINGMAN, AZ    CLEAR     43  22  43 E5        30.15R
FLAGSTAFF, AZ  CLEAR     34  25  69 W12G24    30.11S WCI  25

$$

REGIONAL REPORTS    NEVADA/IDAHO/WYOMING

CITY           SKY/WX    TMP DP  RH WIND       PRES   REMARKS
LAS VEGAS, NV  CLEAR     58  36  43 NW3       30.11R
ELY, NY        CLEAR     27  23  85 S9        30.21R WCI  18
ELKO, NV       CLEAR     33  27  78 CALM      30.15R
POCATELLO, ID  CLEAR     41  24  51 SW14      30.12R
BURLEY, ID     CLEAR     36  24  62 SW10      30.10R WCI  28
FORT BRIDGER,  CLOUDY    35  33  92 W15       30.12R WCI  25
EVANSTON, WY   CLOUDY    29  23  78 W3        30.11R
ROCK SPRINGS,  CLOUDY    37  30  75 CALM      30.06R
KEMMERER, WY     N/A     32  28  86 W8        30.10R WCI  25

$$



USA.gov is the U.S. government's official web portal to all federal, state and local government web resources and services.